Regional Weather Roundup
Issued by NWS

Home | Current Version | Previous Version | Graphics & Text | Print | Product List | Glossary On
Versions: 1 2 3 4 5 6 7 8 9 10 11 12 13 14 15 16 17 18 19 20 21 22 23 24 25 26 27 28 29 30 31 32 33 34 35 36 37 38 39 40 41 42 43 44 45 46 47 48 49 50
000
ASUS43 KDMX 192007
RWRIA

WEATHER ROUNDUP FOR IOWA
NATIONAL WEATHER SERVICE DES MOINES IA
300 PM CDT FRI SEP 19 2014

NOTE: "FAIR" INDICATES FEW OR NO CLOUDS BELOW 12,000 FEET WITH NO
SIGNIFICANT WEATHER AND/OR OBSTRUCTIONS TO VISIBILITY.

* - THESE STATIONS ARE NOT NWS STATIONS...THUS NOT UNDER NWS
QUALITY CONTROL.  THEY ALSO DO NOT REPORT WEATHER SUCH
AS PRECIPITATION OR FOG.

IAZ001>003-012>014-020>022-031>034-043>046-192100-
   NORTHWEST IOWA

CITY           SKY/WX    TMP DP  RH WIND       PRES   REMARKS
CARROLL *      SUNNY     81  66  61 S18G26    29.82F HX  83
CHEROKEE *     SUNNY     84  66  54 S25G33    29.75F HX  86
DENISON *      SUNNY     79  68  69 S15G28    29.80F HX  81
LE MARS *      SUNNY     86  68  54 S21G35    29.72S HX  89
ORANGE CITY *  SUNNY     84  64  51 S22G29    29.72F HX  86
SHELDON *      SUNNY     82  66  57 SW22G35   29.70F HX  85
SIOUX CITY     SUNNY     88  66  48 S17G25    29.75F HX  90
SPENCER        MOSUNNY   82  64  54 S23G35    29.72F HX  83
STORM LAKE *   SUNNY     81  70  69 S22G29    29.78F HX  84
$$

IAZ055>058-069>071-079>083-090>094-192100-
   SOUTHWEST IOWA

CITY           SKY/WX    TMP DP  RH WIND       PRES   REMARKS
ATLANTIC *     SUNNY     77  68  73 S17G24    29.86F
AUDUBON *      SUNNY     79  64  61 S18G24    29.86F HX  81
CLARINDA *     SUNNY     79  68  69 S13       29.91F HX  81
COUNCIL BLFS * SUNNY     81  72  74 S14G24    29.84F HX  84
CRESTON *      MOSUNNY   75  66  73 S18G25    29.92F
HARLAN  *      SUNNY     79  68  69 S16G25    29.88F HX  81
LAMONI         SUNNY     75  65  70 S15G24    29.95F
RED OAK *      SUNNY     79  68  69 S16       29.87F HX  81
SHENANDOAH *   SUNNY     79  68  69 S17G23    29.89F HX  81
$$

IAZ047>049-059>061-072>074-084-192100-
   CENTRAL IOWA

CITY           SKY/WX    TMP DP  RH WIND       PRES   REMARKS
AMES           SUNNY     79  65  62 S20G29    29.87F HX  81
ANKENY *       SUNNY     77  64  65 S16G24    29.89S
CHARITON *     SUNNY     77  64  65 S16G25    29.94F
DES MOINES     PTSUNNY   80  65  59 S17       29.89F HX  82
GRINNELL*      SUNNY     75  61  60 S17G23    29.93F
KNOXVILLE *    SUNNY     75  63  64 S16G25    29.92F
MARSHALLTOWN   SUNNY     77  61  57 S21G30    29.88F
PELLA *        SUNNY     77  63  61 S15G25    29.94F
PERRY *          N/A     81  66  61 S17G23    29.86F HX  83
$$

IAZ004>006-015-016-023>025-035-036-192100-
   NORTH CENTRAL IOWA

CITY           SKY/WX    TMP DP  RH WIND       PRES   REMARKS
ALGONA *       SUNNY     82  64  54 S29G35    29.76F HX  84
CLARION *        N/A     81  64  57 S21G31    29.80F HX  82
ESTHERVILLE    SUNNY     82  64  54 SW24G33   29.70F HX  83
FORT DODGE *   SUNNY     81  66  61 S22G30    29.82F HX  83
MASON CITY     SUNNY     79  63  57 S25G35    29.81F HX  80
FOREST CITY *  SUNNY     79  64  61 S23G31    29.79F HX  81
IOWA FALLS *     N/A     79  61  53 S20G29    29.86F HX  80
$$

IAZ007>011-017>019-026>030-037>042-050>054-066-192100-
   NORTHEAST IOWA

CITY           SKY/WX    TMP DP  RH WIND       PRES   REMARKS
CEDAR RAPIDS   SUNNY     74  58  57 S21G28    29.95F
CHARLES CITY * SUNNY     77  61  57 S24G31    29.85F
CLINTON *      SUNNY     73  52  46 S16G23    30.03F
DECORAH *      SUNNY     73  57  56 S18G30    29.87F
DUBUQUE        SUNNY     72  53  51 S20G26    29.97F
MONTICELLO *   SUNNY     75  55  50 S17G28    29.96F
OELWEIN *      CLOUDY    73  57  56 S24G33    29.91F
WATERLOO       MOSUNNY   76  59  55 S24G31    29.87F
$$

IAZ064-065-067-068-078-192100-
   EAST CENTRAL IOWA

CITY           SKY/WX    TMP DP  RH WIND       PRES   REMARKS
DAVENPORT      SUNNY     75  50  41 S17G24    30.00F
IOWA CITY      SUNNY     74  58  57 S16G23    29.98F
MT. PLEASANT * MOSUNNY   79  52  38 S13       30.00S
MUSCATINE *    SUNNY     77  54  44 S15G24    29.99F
QUAD CITIES    SUNNY     76  52  43 S14G24    30.00F
$$

IAZ062-063-075>077-085>089-095>099-192100-
   SOUTHEAST IOWA

CITY           SKY/WX    TMP DP  RH WIND       PRES   REMARKS
BURLINGTON     SUNNY     76  56  49 S15G21    30.00F
FAIRFIELD *    SUNNY     75  57  53 S15       29.99F
FORT MADISON * SUNNY     79  54  41 S9        30.01F
KEOKUK *       SUNNY     75  57  53 S13G20    30.00F
OSKALOOSA *      N/A     75  61  60 S17       29.97F
CENTERVILLE *  SUNNY     75  63  64 SE10      30.00F
OTTUMWA        MOSUNNY   76  59  55 S12G22    29.97F
WASHINGTON *   SUNNY     77  57  50 S17       29.99F
$$

ABBREVIATIONS USED IN REMARKS
   TC - TEMPERATURES IN CELSIUS
  WCI - WIND CHILL INDEX
   HX - HEAT INDEX
  VSB - VISIBILITY
$$




USA.gov is the U.S. government's official web portal to all federal, state and local government web resources and services.